This is the latest recevied weather packets stored in our database for station/object N5ATR. If no packets are shown the sender has not sent any weather packets the latest 10 day(s).
| Time | Temp. | Humidity | Pressure | Rain* | Wind** | Luminosity | Snow |
|---|---|---|---|---|---|---|---|
| 1788410672 | 19.44° C | 44% | 1022.3 hPa | 0 mm | - | 0 W/m² | - |
| 1788410369 | 18.89° C | 45% | 1022.2 hPa | 0 mm | - | 0 W/m² | - |
| 1788410064 | 18.89° C | 45% | 1022.3 hPa | 0 mm | - | 0 W/m² | - |
| 1788409762 | 20° C | 44% | 1022.4 hPa | 0 mm | - | 0 W/m² | - |
| 1788409458 | 20° C | 43% | 1022.3 hPa | 0 mm | - | 0 W/m² | - |
| 1788409154 | 19.44° C | 43% | 1022 hPa | 0 mm | - | 0 W/m² | - |
| 1788408850 | 19.44° C | 43% | 1022.2 hPa | 0 mm | - | 0 W/m² | - |
| 1788408546 | 19.44° C | 44% | 1022.4 hPa | 0 mm | - | 0 W/m² | - |
| 1788408245 | 18.89° C | 44% | 1022.2 hPa | 0 mm | - | 0 W/m² | - |
| 1788407941 | 18.33° C | 46% | 1022.4 hPa | 0 mm | - | 0 W/m² | - |
| 1788407636 | 18.33° C | 46% | 1022.3 hPa | 0 mm | - | 0 W/m² | - |
| 1788407331 | 18.89° C | 45% | 1022.2 hPa | 0 mm | - | 0 W/m² | - |
| 1788407026 | 18.89° C | 44% | 1022 hPa | 0 mm | - | 0 W/m² | - |
| 1788406722 | 19.44° C | 44% | 1022.2 hPa | 0 mm | - | 0 W/m² | - |
| 1788406417 | 18.89° C | 44% | 1022.2 hPa | 0 mm | - | 0 W/m² | - |
| 1788406116 | 18.89° C | 45% | 1022 hPa | 0 mm | - | 0 W/m² | - |
| 1788405812 | 18.33° C | 45% | 1022.3 hPa | 0 mm | - | 0 W/m² | - |
| 1788405507 | 18.89° C | 44% | 1022.2 hPa | 0 mm | - | 0 W/m² | - |
| 1788405207 | 18.89° C | 44% | 1022 hPa | 0 mm | - | 0 W/m² | - |
| 1788404903 | 19.44° C | 43% | 1022 hPa | 0 mm | - | 0 W/m² | - |
| 1788404598 | 20° C | 42% | 1021.9 hPa | 0 mm | - | 0 W/m² | - |
| 1788404294 | 19.44° C | 42% | 1021.9 hPa | 0 mm | - | 0 W/m² | - |
| 1788403989 | 20° C | 42% | 1022 hPa | 0 mm | - | 0 W/m² | - |
| 1788403683 | 20° C | 41% | 1021.8 hPa | 0 mm | - | 0 W/m² | - |
| 1788403383 | 20.56° C | 40% | 1021.5 hPa | 0 mm | - | 0 W/m² | - |
* Rain latest hour (hover to see other rain measurements)
** Current wind speed in m/s (hover to see current wind gust speed)